#timestamp,LO_Frequency,Hit,Temp,Hum 
1488016815.8,286047148.0,N,0.0,0.0
1488016835.7,286047148.4,N,0.0,0.0
1488016855.5,286047144.8,N,0.0,0.0
1488016875.3,286047138.0,N,0.0,0.0
1488016895.2,286047128.4,N,0.0,0.0
1488016915.0,286047169.9,Y,0.0,0.0
1488016915.9,286047169.9,Y,0.0,0.0
1488016935.8,286046977.0,N,0.0,0.0
1488016955.6,286046975.5,N,0.0,0.0
1488016975.4,286046968.3,N,0.0,0.0
1488016995.7,286046964.1,N,0.0,0.0
1488017015.6,286046958.7,N,0.0,0.0
1488017035.5,286046952.1,N,0.0,0.0
1488017055.3,286046901.1,N,0.0,0.0
1488017075.1,286046941.9,N,0.0,0.0
1488017095.9,286046933.0,N,0.0,0.0
1488017115.7,286046929.9,N,0.0,0.0
1488017135.5,286046881.9,N,0.0,0.0
1488017155.4,286046879.6,N,0.0,0.0
1488017175.2,286046886.9,N,0.0,0.0
1488017195.0,286046882.1,N,0.0,0.0
1488017195.9,286046882.1,N,0.0,0.0
1488017215.8,286046879.1,N,0.0,0.0
1488017235.6,286046874.5,N,0.0,0.0
1488017255.4,286046871.4,N,0.0,0.0
1488017275.3,286046867.1,N,0.0,0.0
1488017295.1,286046866.8,N,0.0,0.0
1488017296.0,286046866.8,N,0.0,0.0
1488017315.8,286046863.5,N,0.0,0.0
1488017335.7,286046860.7,N,0.0,0.0
1488017355.5,286046859.0,N,0.0,0.0
1488017375.3,286046858.8,N,0.0,0.0
1488017395.1,286046854.4,N,0.0,0.0
1488017415.9,286046855.6,N,0.0,0.0
1488017435.7,286046853.3,N,0.0,0.0
1488017455.5,286046851.6,N,0.0,0.0
1488017475.4,286046852.8,N,0.0,0.0
1488017495.2,286046852.1,N,0.0,0.0
1488017515.0,286046850.0,N,0.0,0.0
1488017515.9,286046850.0,N,0.0,0.0
1488017535.8,286046848.2,N,0.0,0.0
1488017555.6,286046848.7,N,0.0,0.0
1488017575.4,286046848.7,N,0.0,0.0
1488017595.3,286046847.2,N,0.0,0.0
1488017615.1,286046844.8,N,0.0,0.0
1488017635.8,286046843.8,N,0.0,0.0
1488017655.7,286046843.9,N,0.0,0.0
1488017675.5,286046842.2,N,0.0,0.0
1488017695.3,286046839.8,N,0.0,0.0
1488017715.2,286046840.3,N,0.0,0.0
1488017735.9,286046839.6,N,0.0,0.0
1488017755.7,286046838.5,N,0.0,0.0
1488017775.6,286046836.6,N,0.0,0.0
1488017795.4,286046837.5,N,0.0,0.0
1488017815.2,286046836.1,N,0.0,0.0
1488017835.0,286046835.3,N,0.0,0.0
1488017836.0,286046835.3,N,0.0,0.0
1488017855.8,286046836.0,N,0.0,0.0
1488017875.6,286046836.0,N,0.0,0.0
1488017895.4,286046834.7,N,0.0,0.0
1488017915.3,286046832.1,N,0.0,0.0
1488017935.1,286046833.0,N,0.0,0.0
1488017955.8,286046834.5,N,0.0,0.0
1488017975.7,286046832.8,N,0.0,0.0
1488017995.5,286046831.5,N,0.0,0.0
1488018015.3,286046827.4,N,0.0,0.0
1488018035.2,286046827.6,N,0.0,0.0
1488018055.0,286046863.1,N,0.0,0.0
1488018055.9,286046863.1,N,0.0,0.0
1488018075.7,286046860.6,N,0.0,0.0
1488018095.6,286046862.2,N,0.0,0.0
1488018115.4,286046864.2,N,0.0,0.0
1488018135.2,286046862.5,N,0.0,0.0
1488018155.1,286046865.1,N,0.0,0.0
1488018156.0,286046865.1,N,0.0,0.0
1488018175.8,286046862.1,N,0.0,0.0
1488018195.6,286046823.4,N,0.0,0.0
1488018215.5,286046823.3,N,0.0,0.0
1488018235.3,286046800.9,N,0.0,0.0
1488018255.1,286046800.6,N,0.0,0.0
1488018275.9,286046802.8,N,0.0,0.0
1488018295.7,286046798.2,N,0.0,0.0
1488018315.5,286046800.6,N,0.0,0.0
1488018335.4,286046821.9,N,0.0,0.0
1488018355.2,286046822.0,N,0.0,0.0
1488018375.0,286046819.6,N,0.0,0.0
1488018375.9,286046819.6,N,0.0,0.0
1488018395.8,286046842.7,N,0.0,0.0
1488018415.6,286046821.9,N,0.0,0.0
1488018435.4,286046839.5,N,0.0,0.0
1488018455.3,286046836.7,N,0.0,0.0
1488018475.1,286046840.8,N,0.0,0.0
1488018476.0,286046840.8,N,0.0,0.0
1488018495.8,286046837.3,N,0.0,0.0
1488018515.7,286046836.6,N,0.0,0.0
1488018535.5,286046836.8,N,0.0,0.0
1488018555.3,286046835.6,N,0.0,0.0
1488018575.2,286046835.3,N,0.0,0.0
1488018595.9,286046837.9,N,0.0,0.0
1488018615.7,286046835.1,N,0.0,0.0
1488018635.5,286046835.6,N,0.0,0.0
1488018655.4,286046834.9,N,0.0,0.0
1488018675.2,286046835.3,N,0.0,0.0
1488018695.0,286046837.8,N,0.0,0.0
1488018695.9,286046837.8,N,0.0,0.0
1488018715.8,286046837.7,N,0.0,0.0
1488018735.6,286046837.8,N,0.0,0.0
1488018755.4,286046862.7,N,0.0,0.0
1488018775.3,286046860.5,N,0.0,0.0
1488018795.1,286046860.5,N,0.0,0.0
1488018815.8,286046862.8,N,0.0,0.0
1488018835.7,286046810.1,N,0.0,0.0
1488018855.5,286046809.1,N,0.0,0.0
1488018875.3,286046806.9,N,0.0,0.0
1488018895.2,286046806.6,N,0.0,0.0
1488018915.9,286046803.8,N,0.0,0.0
1488018935.7,286046805.6,N,0.0,0.0
1488018955.6,286046717.8,N,0.0,0.0
1488018975.4,286046718.5,N,0.0,0.0
1488018995.2,286046720.8,N,0.0,0.0
1488019015.1,286046719.4,N,0.0,0.0
1488019016.0,286046719.4,N,0.0,0.0
1488019035.8,286046719.5,N,0.0,0.0
1488019055.6,286046718.5,N,0.0,0.0
1488019075.5,286046822.5,N,0.0,0.0
1488019095.3,286046820.9,N,0.0,0.0
1488019115.1,286046819.9,N,0.0,0.0
1488019135.9,286046831.1,N,0.0,0.0
1488019155.7,286046827.1,N,0.0,0.0
1488019175.5,286046828.7,N,0.0,0.0
1488019195.4,286046824.3,N,0.0,0.0
1488019215.2,286046824.2,N,0.0,0.0
1488019235.0,286046838.5,N,0.0,0.0
1488019235.9,286046838.5,N,0.0,0.0
1488019255.8,286046843.0,N,0.0,0.0
1488019275.6,286046843.4,N,0.0,0.0
1488019295.4,286046847.6,N,0.0,0.0
1488019315.2,286046845.7,N,0.0,0.0
1488019335.1,286046840.8,N,0.0,0.0
1488019336.0,286046840.8,N,0.0,0.0
1488019355.8,286046835.1,N,0.0,0.0
1488019375.6,286046833.2,N,0.0,0.0
1488019395.5,286046829.5,N,0.0,0.0
1488019415.3,286046825.8,N,0.0,0.0
1488019435.1,286046822.8,N,0.0,0.0
1488019455.9,286046820.0,N,0.0,0.0
1488019475.7,286046803.4,N,0.0,0.0
1488019495.5,286046801.7,N,0.0,0.0
1488019515.4,286046804.0,N,0.0,0.0
1488019535.2,286046800.8,N,0.0,0.0
1488019555.0,286046806.3,N,0.0,0.0
1488019555.9,286046806.3,N,0.0,0.0
1488019575.8,286046808.4,N,0.0,0.0
1488019595.6,286046805.1,N,0.0,0.0
1488019615.4,286046802.0,N,0.0,0.0
1488019635.3,286046797.1,N,0.0,0.0
1488019655.1,286046797.4,N,0.0,0.0
1488019656.0,286046797.4,N,0.0,0.0
1488019675.8,286046785.5,N,0.0,0.0
1488019695.7,286046799.5,N,0.0,0.0
1488019715.5,286046796.6,N,0.0,0.0
1488019735.3,286046798.3,N,0.0,0.0
1488019755.2,286046798.6,N,0.0,0.0
1488019775.9,286046798.4,N,0.0,0.0
1488019795.7,286046796.2,N,0.0,0.0
1488019815.6,286046795.3,N,0.0,0.0
1488019835.4,286046800.5,N,0.0,0.0
1488019855.2,286046802.5,N,0.0,0.0
1488019875.0,286046800.4,N,0.0,0.0
1488019876.0,286046800.4,N,0.0,0.0
1488019895.8,286046805.0,N,0.0,0.0
1488019915.6,286046806.7,N,0.0,0.0
1488019935.4,286046763.3,N,0.0,0.0
1488019955.3,286046765.9,N,0.0,0.0
1488019975.1,286046766.6,N,0.0,0.0
1488019995.8,286046795.1,N,0.0,0.0
1488020015.7,286046804.0,N,0.0,0.0
1488020035.5,286046851.1,N,0.0,0.0
1488020055.3,286046855.8,N,0.0,0.0
1488020075.2,286046866.1,N,0.0,0.0
1488020095.9,286046870.8,N,0.0,0.0
1488020115.7,286046872.0,N,0.0,0.0
1488020135.6,286046875.7,N,0.0,0.0
1488020155.4,286046880.8,N,0.0,0.0
1488020175.2,286046883.4,N,0.0,0.0
1488020195.1,286046887.7,N,0.0,0.0
1488020196.0,286046887.7,N,0.0,0.0
1488020215.8,286046884.9,N,0.0,0.0
1488020235.6,286046880.2,N,0.0,0.0
1488020255.5,286046878.4,N,0.0,0.0
1488020275.3,286046872.6,N,0.0,0.0
1488020295.1,286046867.2,N,0.0,0.0
1488020315.9,286046844.6,N,0.0,0.0
1488020335.7,286046853.1,N,0.0,0.0
1488020355.5,286046846.3,N,0.0,0.0
1488020375.4,286046841.9,N,0.0,0.0
1488020395.2,286046849.0,N,0.0,0.0
